Volver al catálogo

CZ-4 DEB

ActivoSSO
NORAD 27688·DEBRIS·🇨🇳 China

Lanzado Oct 14, 1999 desde Taiyuan Satellite Launch Center

Loading…

Próximos Pases (próximas 24 horas)

TLE

ActualizadoSource: Space-Track

Época: Sep 12, 2026, 22:46 UTC

1 27688U 99057MU  26255.94883009  .00000918  00000-0  22363-3 0  9999
2 27688  98.4917 322.4914 0079349 338.6110 196.1129 14.53356077739942

Sigue CZ-4 DEB en tiempo real con AllMySat

Download on the App Store